Погода в Красноуральске

Россия / Свердловская область     58°21′13″N   60°03′21″E
темп.,
°C
ветер,
м/с
пор.,
м/с
влажн.,
%
обл.,
%
осадки,
мм/ч
давл.,
гПа
погр.,
м
5 декабря, вс
вс523:00+2юз71693100 0.1 10051170
02:00+1юз51297100 0.2 1005963
05:000зюз4996100 0.4 1006834
08:00−4ссз2494100 0.1 1008111
11:00−7ссв129090 0.3 1010173
14:00−7св3389100 0.3 1011235
17:00−8св1292100 0.6 1013119
20:00−8в1194100 0.2 101477
6 декабря, пн
пн623:00−7ююз289594 0.4 1014261
02:00−9з498069 0.2 1016752
05:00−15з498070 0.2 1018436
08:00−16зсз36815 0.0 1020368
11:00−16сз23795 0.0 1021274
14:00−14з23705 0.0 1022361
17:00−15з37802 0.0 1023312
20:00−16з38815 0.0 1024280
7 декабря, вт
вт723:00−17з25845 0.0 1025157
02:00−17зюз37855 0.0 1026169
05:00−16з410835 0.0 1028251
08:00−16з515791 0.0 1029391
11:00−15з513700 0.0 1030379
14:00−13з410690 0.0 1031359
17:00−14з411794 0.0 1033328
20:00−13з410814 0.0 1034241
8 декабря, ср
ср823:00−14з38855 0.0 1035177
02:00−15зюз2591100 0.0 103682
05:00−15зюз2489100 0.0 103766
08:00−13юз1282100 0.0 103653
11:00−10ююз2470100 0.0 1036100
14:00−8ю2665100 0.0 1034183
17:00−8ю3876100 0.1 1033246
20:00−7ю51390100 0.8 1030504
9 декабря, чт
чт923:00−6ююз31295100 1.7 1029539
02:00−2юз41590100 0.5 1027671
05:00−1зюз51489100 0.5 1028694
08:00−1зюз41387100 0.0 1028509
11:00−1зюз41389100 0.0 1029489
14:000зюз41386100 0.0 1029483
17:00−1зюз3989100 0.0 1030293
20:00−2юз3888100 0.0 1031278